Location: Hilton Head Island
(32.2163°N, 80.7526°W)
Time: 16:13:14
(UTC-05:00)

Explorer 11/Cluster Stage 4 - Pass Details

Date: 24 February 2026
Orbit: 463 x 1176 km, 28.8° (Epoch: 6 March)

Event Time Altitude Azimuth Distance (km) Brightness Sun altitude
Rises 10:38:33 0° 247° (WSW) 3,665 9.9 39.9°
Reaches altitude 10° 10:41:32 10° 243° (WSW) 2,602 9.3 40.3°
Maximum altitude 10:47:28 48° 170° (S) 1,014 8.9 41.0°
Drops below altitude 10° 10:52:18 10° 96° (E) 2,121 9.4 41.6°
Sets 10:54:31 0° 90° (E) 2,931 9.9 41.9°
